Regional Weather Roundup
Issued by NWS

Current Version | Previous Version | Text Only | Print | Product List | Glossary On
Versions: 1 2 3 4 5 6 7 8 9 10 11 12 13 14 15 16 17 18 19 20 21 22 23 24 25 26 27 28
000
ASUS44 KBMX 251910
RWRAL

ALABAMA REGIONAL WEATHER ROUNDUP
NATIONAL WEATHER SERVICE BIRMINGHAM AL
200 PM CDT TUE JUL 25 2017

NOTE: "FAIR" INDICATES FEW OR NO CLOUDS BELOW 12,000 FEET
WITH NO SIGNIFICANT WEATHER AND/OR OBSTRUCTIONS TO VISIBILITY.

THE REMARK "TC" DENOTES TEMPERATURE IN DEGREES CELSIUS.

ALZ001>011-014-016>018-020-252000-
NORTH ALABAMA

CITY           SKY/WX    TMP DP  RH WIND       PRES   REMARKS
MUSCLE SHOALS  MOSUNNY   92  73  53 VRB3      30.10F HX 100
HUNTSVILLE     MOSUNNY   90  76  63 SW6       30.09F HX 101
DECATUR        SUNNY     90  74  59 VRB7      30.10F HX  99
HALEYVILLE     NOT AVBL
GADSDEN        PTSUNNY   90  75  61 NE3       30.09F HX 100
$$

ALZ012-013-022-023-030>036-040>044-252000-
WEST CENTRAL ALABAMA

CITY           SKY/WX    TMP DP  RH WIND       PRES   REMARKS
TUSCALOOSA     PTSUNNY   89  76  65 SW6       30.09F HX 100
DEMOPOLIS        N/A     88  73  60 SW3       30.09F HX  95
$$

ALZ015-024>026-033>036-041>044-252000-
CENTRAL ALABAMA

CITY           SKY/WX    TMP DP  RH WIND       PRES   REMARKS
BIRMINGHAM     PTSUNNY   87  73  62 W6        30.12F HX  94
MONTGOMERY     CLOUDY    87  73  62 CALM      30.09F HX  94
SHELBY CO ARPT CLOUDY    86  75  69 W3        30.11F HX  95
MAXWELL AFB    MOSUNNY   87  75  67 S3        30.09F HX  96
GREENVILLE     PTSUNNY   86  72  62 E9        30.09F HX  92
SELMA          FAIR      88  73  62 VRB3G13   30.09F HX  96
PRATTVILLE     FAIR      85  76  74 SE3       30.08F HX  95
BESSEMER       FAIR      86  76  71 W5        30.12F HX  96
TALLADEGA      PTSUNNY   87  75  67 W6        30.09F HX  96
PELL CITY      CLEAR     90  77  66 SW7       30.10S HX 102
MARION         FAIR      85  74  70 W3        30.09  HX  92
SYLACAUGA      FAIR      87  78  73 W5        30.10F HX  99
$$

ALZ019-021-028-029-037-038-045>048-252000-
EAST CENTRAL ALABAMA

CITY           SKY/WX    TMP DP  RH WIND       PRES   REMARKS
ANNISTON       MOSUNNY   90  75  61 SW8       30.08F HX 100
ALEXANDER CITY PTSUNNY   85  76  74 W3        30.11S HX  93
AUBURN         PTSUNNY   82  75  79 W6        30.13F
$$

ALZ051>064-252000-
SOUTHWEST ALABAMA

CITY           SKY/WX    TMP DP  RH WIND       PRES   REMARKS
MOBILE         PTSUNNY   82  73  74 VRB6      30.15S
BROOKLEY FIELD CLOUDY    83  77  82 VRB6      30.15S HX  92
EVERGREEN      MOSUNNY   89  72  56 NW7       30.10F HX  96
$$

ALZ049-050-065>069-252000-
SOUTHEAST ALABAMA

CITY           SKY/WX    TMP DP  RH WIND       PRES   REMARKS
DOTHAN         TSTM      75  75 100 W6        30.15S FOG
OZARK          TSTM      75  73  94 NW8       30.10F
TROY           PTSUNNY   78  76  93 SW3       30.12F
EUFAULA        PTSUNNY   84  74  71 VRB3      30.09S HX  91
$$




USA.gov is the U.S. government's official web portal to all federal, state and local government web resources and services.